CW4498 Weather Reports


time (UTC)temp
C
wind
direction
speed
KPH
gust
KPH
rain 1hr
cm
rain 24hr
cm
rain mn
cm
humidity
%
barometer
mb
20260901200018 24 225 3.2 9.7 0.00 0.03 0.00 39 1021.0
20260901194514 24 115 3.2 22.5 0.00 0.03 0.00 40 1021.1
20260901193014 25 126 4.8 14.5 0.00 0.03 0.00 37 1021.1
20260901191516 25 103 3.2 16.1 0.00 0.03 0.00 40 1021.2
20260901190013 24 115 6.4 14.5 0.00 0.03 0.00 42 1021.4
20260901184507 23 126 6.4 19.3 0.00 0.03 0.00 42 1021.6
20260901183017 23 140 6.4 12.9 0.00 0.03 0.00 41 1021.7
20260901181505 23 106 1.6 11.3 0.00 0.03 0.00 43 1021.8
20260901180006 23 120 4.8 12.9 0.00 0.03 0.00 43 1022.1
20260901174502 22 122 1.6 6.4 0.00 0.03 0.00 47 1022.3
20260901173138 21 129 0.0 8.0 0.00 0.03 0.00 52 1022.4
20260901171558 20 111 1.6 8.0 0.00 0.03 0.00 52 1022.8
20260901170055 19 126 3.2 9.7 0.00 0.03 0.00 60 1023.0
20260901164548 18 202 0.0 3.2 0.00 0.03 0.00 62 1022.9
20260901163103 16 121 0.0 4.8 0.00 0.03 0.00 72 1022.8
20260901161549 16 116 0.0 3.2 0.00 0.03 0.00 72 1022.5
20260901160040 16 271 0.0 0.0 0.00 0.03 0.00 77 1022.6
20260901154533 15 271 0.0 3.2 0.00 0.03 0.00 78 1022.4
20260901153031 15 260 0.0 1.6 0.00 0.03 0.00 80 1022.7
20260901151531 15 260 0.0 0.0 0.00 0.03 0.00 81 1022.7
20260901150032 15 260 0.0 1.6 0.00 0.03 0.00 79 1022.4
20260901144528 14 260 0.0 0.0 0.00 0.03 0.00 79 1022.5
20260901143029 14 260 0.0 1.6 0.00 0.03 0.00 80 1022.4
20260901141535 13 260 0.0 1.6 0.00 0.03 0.00 80 1022.3
20260901140027 13 260 0.0 1.6 0.00 0.03 0.00 81 1022.4
20260901134527 13 148 0.0 8.0 0.00 0.03 0.00 80 1022.4
20260901133026 13 349 0.0 3.2 0.00 0.03 0.00 79 1021.8
20260901131532 13 107 0.0 1.6 0.00 0.03 0.00 78 1021.7
20260901130025 14 126 0.0 3.2 0.00 0.03 0.00 74 1021.3
20260901124524 13 117 0.0 3.2 0.00 0.03 0.00 83 1021.1
20260901123031 12 117 0.0 0.0 0.00 0.03 0.00 84 1021.1
20260901121524 12 117 0.0 1.6 0.00 0.03 0.00 84 1020.9
20260901120022 13 120 0.0 1.6 0.00 0.03 0.00 84 1020.9
20260901114522 12 119 0.0 3.2 0.00 0.03 0.00 85 1020.8
20260901113022 12 119 0.0 1.6 0.00 0.03 0.00 85 1020.9
20260901111521 12 120 0.0 1.6 0.00 0.03 0.00 85 1020.9
20260901110019 13 120 0.0 0.0 0.00 0.03 0.00 84 1021.0
20260901104521 13 112 0.0 4.8 0.00 0.03 0.00 84 1021.3
20260901103018 13 203 0.0 1.6 0.00 0.03 0.00 85 1021.3
20260901101517 13 202 0.0 1.6 0.00 0.03 0.00 84 1021.4
20260901100015 13 254 0.0 0.0 0.00 0.03 0.00 82 1021.4
20260901094513 13 254 0.0 1.6 0.00 0.03 0.00 82 1021.3
20260901093012 13 151 0.0 0.0 0.00 0.03 0.00 80 1021.4
20260901091511 14 151 0.0 1.6 0.00 0.03 0.00 78 1021.5
20260901090016 13 236 0.0 1.6 0.00 0.03 0.00 79 1021.6
20260901084509 13 236 0.0 1.6 0.00 0.03 0.00 80 1022.0
20260901083008 14 236 0.0 1.6 0.00 0.03 0.00 79 1022.1
20260901081508 14 236 0.0 0.0 0.00 0.03 0.00 78 1022.5
20260901080007 14 236 0.0 0.0 0.00 0.03 0.00 78 1022.7
20260901074506 14 129 0.0 0.0 0.00 0.03 0.00 78 1022.7
20260901073006 14 153 0.0 0.0 0.00 0.03 0.00 78 1022.7
20260901071504 13 153 0.0 0.0 0.00 0.03 0.00 78 1022.2
20260901070003 13 153 0.0 0.0 0.00 0.03 0.00 78 1022.1
20260901064503 13 153 0.0 0.0 0.00 0.03 0.00 78 1022.1
20260901063002 13 154 0.0 0.0 0.00 0.03 0.00 78 1022.1
20260901061600 14 154 0.0 1.6 0.00 0.03 0.00 77 1022.0
20260901060056 14 153 0.0 0.0 0.00 0.03 0.00 76 1022.0
20260901054557 15 154 0.0 0.0 0.00 0.03 0.03 74 1022.0
20260901053104 15 153 0.0 0.0 0.00 0.03 0.03 74 1022.0
20260901051605 15 153 0.0 0.0 0.00 0.03 0.03 73 1022.2
20260901050056 15 152 0.0 0.0 0.00 0.03 0.03 72 1022.4
20260901044604 15 264 0.0 1.6 0.00 0.10 0.03 74 1022.4
20260901043054 15 156 0.0 0.0 0.00 0.10 0.03 75 1022.8
20260901041616 15 164 0.0 1.6 0.00 0.10 0.03 73 1022.7
20260901040132 15 138 0.0 1.6 0.00 0.10 0.03 72 1022.6
20260901034553 15 273 0.0 0.0 0.00 0.18 0.03 72 1022.4
20260901033052 15 273 0.0 3.2 0.00 0.18 0.03 72 1022.4
20260901031554 15 290 0.0 1.6 0.00 0.18 0.03 73 1022.7
20260901030055 16 191 0.0 0.0 0.03 0.18 0.03 73 1022.2
20260901024554 17 191 0.0 4.8 0.03 0.18 0.03 68 1022.1
20260901023054 17 268 3.2 9.7 0.03 0.18 0.03 61 1021.8
20260901021549 17 277 6.4 24.1 0.03 0.18 0.03 64 1021.8
20260901020049 17 250 11.3 35.4 0.00 0.15 0.00 64 1021.7
20260901014548 21 276 8.0 27.4 0.00 0.15 0.00 47 1021.2
20260901013054 21 238 0.0 8.0 0.00 0.15 0.00 45 1020.6
20260901011547 21 116 1.6 8.0 0.00 0.15 0.00 43 1020.6
20260901010059 21 101 3.2 12.9 0.00 0.15 0.00 42 1020.5
20260901004547 22 122 8.0 17.7 0.00 0.15 0.00 40 1020.3
20260901003046 23 114 6.4 11.3 0.00 0.15 0.00 37 1020.2
20260901001545 23 96 6.4 19.3 0.00 0.15 0.00 36 1020.3
20260901000045 23 134 3.2 14.5 0.00 0.15 0.00 37 1020.4
20260831234544 23 103 6.4 16.1 0.00 0.15 0.00 36 1020.5
20260831233046 23 128 9.7 19.3 0.00 0.15 0.00 35 1020.5
20260831231542 24 150 8.0 20.9 0.00 0.15 0.00 35 1020.8
20260831230053 24 100 4.8 14.5 0.00 0.15 0.00 34 1021.0
20260831224541 24 126 6.4 16.1 0.00 0.15 0.00 34 1020.9
20260831223041 25 126 4.8 16.1 0.00 0.15 0.00 34 1021.0
20260831221545 25 121 4.8 12.9 0.00 0.15 0.00 34 1021.4
20260831220039 25 84 1.6 11.3 0.00 0.15 0.00 33 1021.6
20260831214544 25 109 0.0 4.8 0.00 0.15 0.00 33 1021.6
20260831213041 25 111 0.0 1.6 0.00 0.15 0.00 33 1021.7
20260831211538 25 111 0.0 1.6 0.00 0.15 0.00 31 1022.1
20260831210037 25 117 0.0 4.8 0.00 0.15 0.00 32 1022.2
20260831204538 25 142 1.6 4.8 0.00 0.15 0.00 31 1022.3
20260831203034 25 126 0.0 6.4 0.00 0.15 0.00 32 1022.4
20260831201534 25 115 0.0 4.8 0.00 0.15 0.00 33 1022.7